Tracking 18624 objects as of 28-April-2017
HD Live streaming from Space Station
objects crossing your sky now

TDRS 3

Track TDRS 3 now!
TDRS 3 is classified as:


NORAD ID: 19548
Int'l Code: 1988-091B
Perigee: 35,631.5 km
Apogee: 35,954.4 km
Inclination: 14.4 °
Period: 1,436.1 minutes
Semi major axis: 42163 km
RCS: 38.9601 m2 (large)
Launch date: September 29, 1988
Source: United States (US)
Launch site: AIR FORCE EASTERN TEST RANGE (AFETR)

Backup; still partially operational.
Your satellite tracking list
Your tracking list is empty





NASA's NSSDC Master Catalog

Two Line Element Set (TLE):
1 19548U 88091B   17117.43482086 -.00000309 +00000-0 +00000-0 0  9998
2 19548 014.4377 008.4853 0038291 314.2229 347.1134 01.00274614091894
Source of the keplerian elements: AFSPC